Falfurrias, TX

9:43 PM CDT on July 20, 2019 (GMT -0500)
Falfurrias

Weather History for KBKS - May, 2019

Change the Weather History Date:

Friday, May 24, 2019

  Actual Average (KNQI) Record (KNQI)
Temperature  
Mean Temperature 86 °F -  
Max Temperature 95 °F 88 °F 97 °F (2018)
Min Temperature 78 °F 70 °F 57 °F (2017)
Cooling Degree Days 22    
Growing Degree Days 36 (Base 50)    
Moisture  
Dew Point 72 °F    
Average Humidity 66    
Maximum Humidity 84    
Minimum Humidity 40    
Precipitation  
Precipitation 0.00 in - - ()
Sea Level Pressure  
Sea Level Pressure 29.91 in    
Wind  
Wind Speed 13 mph (SE)    
Max Wind Speed 23 mph    
Max Gust Speed 30 mph    
Visibility 10 miles    
Events      
Averages and records for this station are not official NWS values.
T = Trace of Precipitation, MM = Missing Value Source: NWS Daily Summary

Daily Weather History Graph

Daily Weather History Graph

Search for Another Location

Airport or City:

Astronomy

May. 24, 2019 Rise Set
Actual Time 6:40 AM CDT 8:18 PM CDT
Civil Twilight 6:14 AM CDT 8:44 PM CDT
Nautical Twilight 5:43 AM CDT 9:15 PM CDT
Astronomical Twilight 5:11 AM CDT 9:47 PM CDT
Moon 12:45 AM CDT (5/24) 11:40 AM CDT (5/24)
Length of Visible Light 14h 29m
Length of Day
13h 38m
Waning Gibbous, 68% of the Moon is Illuminated
May 24
Waning Gibbous
May 26
Last Quarter
Jun 3
New
Jun 10
First Quarter
Jun 17
Full

Hourly Weather History & Observations

Time (CDT) Temp. Heat Index Dew Point Humidity Pressure Visibility Wind Dir Wind Speed Gust Speed Precip Events Conditions
12:15 AM 82.8 °F 89.0 °F 73.8 °F 74% 29.93 in 10.0 mi SE 15.0 mph 19.6 mph N/A   Overcast
12:35 AM 82.8 °F 89.0 °F 73.8 °F 74% 29.93 in 10.0 mi SE 13.8 mph 20.7 mph N/A   Overcast
12:55 AM 82.6 °F 88.8 °F 73.8 °F 75% 29.93 in 10.0 mi SE 12.7 mph - N/A   Overcast
1:15 AM 82.4 °F 88.4 °F 73.8 °F 75% 29.92 in 10.0 mi SE 11.5 mph - N/A   Overcast
1:35 AM 82.4 °F 88.4 °F 73.9 °F 75% 29.92 in 10.0 mi SE 11.5 mph 17.3 mph N/A   Overcast
1:55 AM 82.0 °F 87.7 °F 73.6 °F 75% 29.91 in 10.0 mi SE 10.4 mph - N/A   Overcast
2:15 AM 81.7 °F 86.9 °F 73.0 °F 75% 29.91 in 10.0 mi SE 11.5 mph 17.3 mph N/A   Overcast
2:35 AM 81.5 °F 86.3 °F 72.7 °F 74% 29.90 in 10.0 mi SE 13.8 mph 20.7 mph N/A   Mostly Cloudy
2:55 AM 81.1 °F 85.8 °F 72.5 °F 75% 29.90 in 10.0 mi SE 11.5 mph 17.3 mph N/A   Scattered Clouds
3:15 AM 80.6 °F 85.0 °F 72.7 °F 77% 29.89 in 10.0 mi SE 10.4 mph 16.1 mph N/A   Scattered Clouds
3:35 AM 80.2 °F 84.3 °F 72.5 °F 77% 29.90 in 10.0 mi SE 11.5 mph - N/A   Clear
3:55 AM 80.1 °F 84.1 °F 72.5 °F 78% 29.90 in 10.0 mi SE 9.2 mph - N/A   Scattered Clouds
4:15 AM 79.9 °F - 72.5 °F 78% 29.90 in 10.0 mi SE 10.4 mph 16.1 mph N/A   Mostly Cloudy
4:35 AM 79.7 °F - 72.5 °F 79% 29.90 in 10.0 mi SE 10.4 mph - N/A   Overcast
4:55 AM 79.7 °F - 72.7 °F 79% 29.89 in 10.0 mi SE 10.4 mph - N/A   Overcast
5:15 AM 79.3 °F - 72.9 °F 80% 29.89 in 10.0 mi SE 10.4 mph - N/A   Overcast
5:35 AM 78.8 °F - 72.9 °F 82% 29.89 in 7.0 mi SE 9.2 mph - N/A   Scattered Clouds
5:55 AM 78.6 °F - 72.9 °F 82% 29.90 in 7.0 mi SE 10.4 mph - N/A   Unknown
6:15 AM 78.4 °F - 72.7 °F 82% 29.90 in 10.0 mi ESE 9.2 mph - N/A   Clear
6:35 AM 78.1 °F - 72.7 °F 83% 29.90 in 10.0 mi ESE 8.1 mph - N/A   Clear
6:55 AM 78.1 °F - 72.9 °F 84% 29.91 in 7.0 mi SE 8.1 mph - N/A   Scattered Clouds
7:15 AM 78.3 °F - 73.0 °F 84% 29.92 in 7.0 mi SE 9.2 mph - N/A   Scattered Clouds
7:35 AM 78.8 °F - 73.2 °F 83% 29.93 in 7.0 mi SE 9.2 mph - N/A   Scattered Clouds
7:55 AM 79.5 °F - 73.4 °F 81% 29.93 in 7.0 mi SE 10.4 mph - N/A   Scattered Clouds
8:15 AM 80.4 °F 85.1 °F 73.6 °F 80% 29.93 in 7.0 mi SE 12.7 mph 16.1 mph N/A   Scattered Clouds
8:35 AM 81.7 °F 87.1 °F 73.4 °F 76% 29.93 in 10.0 mi SE 10.4 mph 19.6 mph N/A   Scattered Clouds
8:55 AM 82.6 °F 88.1 °F 72.9 °F 72% 29.94 in 7.0 mi SE 16.1 mph - N/A   Scattered Clouds
9:15 AM 83.8 °F 89.8 °F 72.5 °F 69% 29.94 in 10.0 mi SSE 15.0 mph 20.7 mph N/A   Scattered Clouds
9:35 AM 85.8 °F 91.8 °F 72.0 °F 63% 29.94 in 10.0 mi SE 17.3 mph 20.7 mph N/A   Scattered Clouds
9:55 AM 86.4 °F 92.2 °F 71.2 °F 61% 29.95 in 10.0 mi SE 16.1 mph 23.0 mph N/A   Mostly Cloudy
10:15 AM 87.6 °F 93.1 °F 70.9 °F 57% 29.94 in 10.0 mi SE 15.0 mph 23.0 mph N/A   Mostly Cloudy
10:35 AM 87.8 °F 93.0 °F 70.2 °F 56% 29.94 in 10.0 mi SSE 17.3 mph 21.9 mph N/A   Mostly Cloudy
10:55 AM 88.9 °F 93.4 °F 69.1 °F 52% 29.94 in 10.0 mi SE 16.1 mph 27.6 mph N/A   Mostly Cloudy
11:15 AM 90.3 °F 95.2 °F 69.6 °F 50% 29.94 in 10.0 mi SE 19.6 mph 26.5 mph N/A   Mostly Cloudy
11:35 AM 90.3 °F 94.3 °F 68.2 °F 48% 29.94 in 10.0 mi SSE 23.0 mph 27.6 mph N/A   Mostly Cloudy
11:55 AM 91.6 °F 95.2 °F 67.3 °F 45% 29.93 in 10.0 mi SE 20.7 mph 27.6 mph N/A   Scattered Clouds
12:15 PM 92.7 °F 96.7 °F 67.8 °F 44% 29.93 in 10.0 mi SSE 17.3 mph 24.2 mph N/A   Scattered Clouds
12:35 PM 93.9 °F 98.6 °F 68.5 °F 43% 29.93 in 10.0 mi SE 15.0 mph 23.0 mph N/A   Scattered Clouds
12:55 PM 93.2 °F 96.2 °F 66.2 °F 41% 29.93 in 10.0 mi SE 18.4 mph 26.5 mph N/A   Scattered Clouds
1:15 PM 93.7 °F 97.2 °F 66.7 °F 41% 29.92 in 10.0 mi SE 15.0 mph 25.3 mph N/A   Mostly Cloudy
1:35 PM 93.0 °F 95.9 °F 66.4 °F 41% 29.91 in 10.0 mi SE 19.6 mph 24.2 mph N/A   Scattered Clouds
1:55 PM 95.4 °F 99.7 °F 67.5 °F 40% 29.91 in 10.0 mi SE 13.8 mph 27.6 mph N/A   Scattered Clouds
2:15 PM 94.8 °F 99.8 °F 68.2 °F 42% 29.90 in 10.0 mi SE 15.0 mph 21.9 mph N/A   Scattered Clouds
2:35 PM 95.4 °F 99.7 °F 67.8 °F 40% 29.90 in 10.0 mi SE 15.0 mph 29.9 mph N/A   Mostly Cloudy
2:55 PM 94.8 °F 99.8 °F 68.2 °F 42% 29.89 in 10.0 mi SE 15.0 mph 24.2 mph N/A   Scattered Clouds
3:15 PM 93.6 °F 100.1 °F 70.5 °F 47% 29.88 in 10.0 mi ESE 16.1 mph 25.3 mph N/A   Mostly Cloudy
3:35 PM 93.9 °F 102.1 °F 72.0 °F 49% 29.87 in 10.0 mi SE 18.4 mph 25.3 mph N/A   Mostly Cloudy
3:55 PM 93.0 °F 100.7 °F 72.1 °F 50% 29.87 in 10.0 mi ESE 18.4 mph 26.5 mph N/A   Scattered Clouds
4:15 PM 92.1 °F 99.9 °F 72.0 °F 52% 29.86 in 10.0 mi ESE 17.3 mph 25.3 mph N/A   Scattered Clouds
4:35 PM 92.1 °F 99.9 °F 72.3 °F 52% 29.86 in 10.0 mi ESE 19.6 mph 28.8 mph N/A   Scattered Clouds
4:55 PM 90.5 °F 98.1 °F 72.5 °F 55% 29.86 in 10.0 mi ESE 16.1 mph 21.9 mph N/A   Scattered Clouds
5:15 PM 90.1 °F 97.8 °F 72.7 °F 56% 29.87 in 10.0 mi East 13.8 mph 26.5 mph N/A   Scattered Clouds
5:35 PM 89.4 °F 96.8 °F 72.5 °F 57% 29.87 in 10.0 mi ESE 16.1 mph 25.3 mph N/A   Mostly Cloudy
5:55 PM 89.1 °F 96.5 °F 72.5 °F 58% 29.86 in 10.0 mi ESE 18.4 mph 26.5 mph N/A   Scattered Clouds
6:15 PM 88.9 °F 96.6 °F 72.7 °F 59% 29.86 in 10.0 mi ESE 19.6 mph 23.0 mph N/A   Clear
6:35 PM 86.9 °F 93.7 °F 72.5 °F 62% 29.87 in 10.0 mi ESE 15.0 mph 29.9 mph N/A   Scattered Clouds
6:55 PM 86.2 °F 93.0 °F 72.7 °F 64% 29.87 in 10.0 mi ESE 15.0 mph 23.0 mph N/A   Scattered Clouds
7:15 PM 86.0 °F 92.6 °F 72.5 °F 64% 29.87 in 10.0 mi ESE 15.0 mph 21.9 mph N/A   Scattered Clouds
7:35 PM 84.9 °F 91.4 °F 73.0 °F 67% 29.87 in 10.0 mi ESE 16.1 mph 21.9 mph N/A   Mostly Cloudy
7:55 PM 83.8 °F 90.1 °F 73.0 °F 70% 29.88 in 10.0 mi ESE 13.8 mph 19.6 mph N/A   Scattered Clouds
8:15 PM 82.8 °F 88.7 °F 73.4 °F 73% 29.88 in 10.0 mi ESE 12.7 mph 20.7 mph N/A   Scattered Clouds
8:35 PM 82.4 °F 88.4 °F 73.6 °F 75% 29.89 in 10.0 mi ESE 13.8 mph 19.6 mph N/A   Clear
8:55 PM 81.9 °F 87.5 °F 73.8 °F 76% 29.90 in 7.0 mi ESE 10.4 mph 17.3 mph N/A   Clear
9:15 PM 81.5 °F 87.2 °F 73.9 °F 78% 29.91 in 7.0 mi ESE 9.2 mph - N/A   Clear
9:35 PM 81.5 °F 87.4 °F 74.3 °F 79% 29.92 in 10.0 mi ESE 12.7 mph 18.4 mph N/A   Scattered Clouds
9:55 PM 81.5 °F 87.4 °F 74.3 °F 79% 29.92 in 10.0 mi ESE 9.2 mph 17.3 mph N/A   Scattered Clouds
10:15 PM 81.5 °F 87.4 °F 74.3 °F 79% 29.92 in 10.0 mi ESE 10.4 mph - N/A   Mostly Cloudy
10:35 PM 81.9 °F 88.0 °F 74.3 °F 78% 29.93 in 10.0 mi ESE 10.4 mph 17.3 mph N/A   Overcast
10:55 PM 81.9 °F 88.0 °F 74.5 °F 78% 29.93 in 10.0 mi ESE 10.4 mph - N/A   Overcast
11:15 PM 81.9 °F 88.2 °F 74.7 °F 79% 29.93 in 10.0 mi SE 9.2 mph - N/A   Overcast
11:35 PM 81.7 °F 87.8 °F 74.7 °F 79% 29.93 in 10.0 mi ESE 10.4 mph 16.1 mph N/A   Overcast
11:55 PM 81.9 °F 88.2 °F 74.7 °F 79% 29.93 in 10.0 mi ESE 10.4 mph - N/A   Overcast